TimeHST,TemperatureF,Dew PointF,Humidity,Sea Level PressureIn,VisibilityMPH,Wind Direction,Wind SpeedMPH,Gust SpeedMPH,PrecipitationIn,Events,Conditions,WindDirDegrees,DateUTC
12:53 AM,75.0,68.0,79,29.93,10.0,NW,5.8,-,N/A,,Partly Cloudy,310,2013-08-29 10:53:00
1:53 AM,73.9,68.0,82,29.93,10.0,West,3.5,-,N/A,,Scattered Clouds,280,2013-08-29 11:53:00
2:53 AM,75.0,68.0,79,29.91,10.0,North,3.5,-,N/A,,Scattered Clouds,350,2013-08-29 12:53:00
3:53 AM,73.9,69.1,85,29.92,10.0,NE,8.1,-,0.02,,Mostly Cloudy,40,2013-08-29 13:53:00
4:53 AM,72.0,68.0,87,29.92,7.0,Calm,Calm,-,0.01,Rain,Light Rain,0,2013-08-29 14:53:00
5:53 AM,73.0,68.0,84,29.93,10.0,North,4.6,-,0.00,,Scattered Clouds,350,2013-08-29 15:53:00
6:53 AM,73.0,69.1,87,29.94,10.0,ENE,9.2,-,0.00,Rain,Light Rain,70,2013-08-29 16:53:00
7:53 AM,75.0,69.1,82,29.94,10.0,North,3.5,-,0.01,,Mostly Cloudy,350,2013-08-29 17:53:00
8:53 AM,79.0,66.9,66,29.95,10.0,East,3.5,-,N/A,,Scattered Clouds,80,2013-08-29 18:53:00
9:53 AM,81.0,66.0,60,29.95,10.0,East,8.1,-,N/A,,Scattered Clouds,90,2013-08-29 19:53:00
10:53 AM,84.9,64.9,51,29.94,10.0,East,9.2,-,N/A,,Scattered Clouds,80,2013-08-29 20:53:00
11:53 AM,86.0,63.0,46,29.92,10.0,East,11.5,20.7,N/A,,Scattered Clouds,80,2013-08-29 21:53:00
12:53 PM,88.0,62.1,42,29.91,10.0,East,13.8,20.7,N/A,,Scattered Clouds,80,2013-08-29 22:53:00
1:53 PM,86.0,64.0,48,29.89,10.0,NE,13.8,-,N/A,,Scattered Clouds,40,2013-08-29 23:53:00
2:53 PM,87.1,62.1,43,29.88,10.0,ENE,17.3,-,N/A,,Scattered Clouds,70,2013-08-30 00:53:00
3:53 PM,87.1,63.0,44,29.88,10.0,NE,12.7,24.2,N/A,,Scattered Clouds,50,2013-08-30 01:53:00
4:53 PM,84.9,64.0,49,29.88,10.0,ENE,11.5,-,N/A,,Scattered Clouds,60,2013-08-30 02:53:00
5:53 PM,82.9,64.9,54,29.90,10.0,ENE,13.8,18.4,N/A,,Scattered Clouds,60,2013-08-30 03:53:00
6:53 PM,80.1,66.0,62,29.92,10.0,East,15.0,-,N/A,,Scattered Clouds,80,2013-08-30 04:53:00
7:53 PM,79.0,66.0,64,29.94,10.0,ENE,12.7,-,N/A,,Scattered Clouds,70,2013-08-30 05:53:00
8:53 PM,78.1,66.9,68,29.96,10.0,ENE,10.4,-,N/A,,Partly Cloudy,60,2013-08-30 06:53:00
9:53 PM,78.1,66.9,68,29.97,10.0,ENE,10.4,-,N/A,,Partly Cloudy,70,2013-08-30 07:53:00
10:53 PM,78.1,66.0,66,29.97,10.0,East,9.2,-,N/A,,Partly Cloudy,80,2013-08-30 08:53:00
11:53 PM,77.0,66.9,71,29.97,10.0,East,8.1,-,N/A,,Partly Cloudy,80,2013-08-30 09:53:00